| time (UTC) | temp F | wind direction | speed MPH | gust MPH | rain 1hr in | rain 24hr in | rain mn in | humidity % | barometer mb |
| 20260904092555 | 74 | 304 | 0.0 | 0.0 | 0.00 | 0.00 | 0.00 | 92 | 1006.6 |
| 20260904092057 | 74 | 304 | 0.0 | 0.0 | 0.00 | 0.00 | 0.00 | 92 | 1006.8 |
| 20260904091555 | 74 | 304 | 0.0 | 0.0 | 0.00 | 0.00 | 0.00 | 91 | 1006.7 |
| 20260904091054 | 74 | 304 | 0.0 | 0.0 | 0.00 | 0.00 | 0.00 | 91 | 1006.8 |
| 20260904090554 | 74 | 304 | 0.0 | 0.0 | 0.00 | 0.00 | 0.00 | 91 | 1006.7 |
| 20260904090054 | 74 | 304 | 0.0 | 1.0 | 0.00 | 0.00 | 0.00 | 91 | 1006.7 |
| 20260904085554 | 75 | 243 | 0.0 | 0.0 | 0.00 | 0.00 | 0.00 | 91 | 1006.7 |
| 20260904085054 | 75 | 243 | 0.0 | 0.0 | 0.00 | 0.00 | 0.00 | 91 | 1006.6 |
| 20260904084559 | 75 | 243 | 0.0 | 0.0 | 0.00 | 0.00 | 0.00 | 91 | 1006.6 |
| 20260904084055 | 75 | 243 | 0.0 | 1.0 | 0.00 | 0.00 | 0.00 | 91 | 1006.6 |
| 20260904083555 | 75 | 243 | 0.0 | 1.0 | 0.00 | 0.00 | 0.00 | 91 | 1006.6 |
| 20260904083054 | 75 | 243 | 0.0 | 1.0 | 0.00 | 0.00 | 0.00 | 91 | 1006.6 |
| 20260904082551 | 75 | 243 | 0.0 | 1.0 | 0.00 | 0.00 | 0.00 | 90 | 1006.6 |
| 20260904082051 | 75 | 243 | 0.0 | 1.0 | 0.00 | 0.00 | 0.00 | 90 | 1006.6 |
| 20260904081551 | 75 | 243 | 0.0 | 1.0 | 0.00 | 0.00 | 0.00 | 90 | 1006.6 |
| 20260904081050 | 75 | 243 | 0.0 | 1.0 | 0.00 | 0.00 | 0.00 | 90 | 1006.6 |
| 20260904080555 | 75 | 243 | 0.0 | 1.0 | 0.00 | 0.00 | 0.00 | 90 | 1006.6 |
| 20260904080113 | 75 | 243 | 0.0 | 1.0 | 0.00 | 0.00 | 0.00 | 90 | 1006.6 |
| 20260904075550 | 75 | 243 | 0.0 | 2.0 | 0.00 | 0.00 | 0.00 | 90 | 1006.6 |
| 20260904075050 | 75 | 243 | 0.0 | 2.0 | 0.00 | 0.00 | 0.00 | 90 | 1006.6 |
| 20260904074549 | 75 | 243 | 0.0 | 2.0 | 0.00 | 0.00 | 0.00 | 90 | 1006.6 |
| 20260904074052 | 75 | 243 | 0.0 | 1.0 | 0.00 | 0.00 | 0.00 | 90 | 1006.6 |
| 20260904073549 | 75 | 243 | 0.0 | 1.0 | 0.00 | 0.00 | 0.00 | 90 | 1006.7 |
| 20260904073049 | 75 | 243 | 0.0 | 1.0 | 0.00 | 0.00 | 0.00 | 90 | 1006.7 |
| 20260904072548 | 75 | 243 | 0.0 | 1.0 | 0.00 | 0.00 | 0.00 | 90 | 1006.6 |
| 20260904072052 | 76 | 243 | 0.0 | 1.0 | 0.00 | 0.00 | 0.00 | 90 | 1006.6 |
| 20260904071548 | 76 | 243 | 0.0 | 2.0 | 0.00 | 0.00 | 0.00 | 90 | 1006.8 |
| 20260904071047 | 75 | 243 | 0.0 | 2.0 | 0.00 | 0.00 | 0.00 | 90 | 1006.7 |
| 20260904070547 | 75 | 243 | 0.0 | 2.0 | 0.00 | 0.00 | 0.00 | 90 | 1006.8 |
| 20260904070056 | 75 | 234 | 0.0 | 1.0 | 0.00 | 0.00 | 0.00 | 90 | 1006.8 |
| 20260904065546 | 75 | 234 | 0.0 | 1.0 | 0.00 | 0.00 | 0.00 | 90 | 1006.9 |
| 20260904065046 | 75 | 234 | 0.0 | 1.0 | 0.00 | 0.00 | 0.00 | 89 | 1006.9 |
| 20260904064547 | 75 | 234 | 0.0 | 1.0 | 0.00 | 0.00 | 0.00 | 89 | 1007.1 |
| 20260904064045 | 75 | 234 | 0.0 | 1.0 | 0.00 | 0.00 | 0.00 | 89 | 1007.0 |
| 20260904063546 | 76 | 234 | 0.0 | 1.0 | 0.00 | 0.00 | 0.00 | 89 | 1007.0 |
| 20260904063107 | 76 | 231 | 0.0 | 0.0 | 0.00 | 0.00 | 0.00 | 89 | 1006.9 |
| 20260904062543 | 76 | 231 | 0.0 | 0.0 | 0.00 | 0.00 | 0.00 | 89 | 1006.9 |
| 20260904062047 | 76 | 231 | 0.0 | 0.0 | 0.00 | 0.00 | 0.00 | 89 | 1006.9 |
| 20260904061543 | 76 | 231 | 0.0 | 1.0 | 0.00 | 0.00 | 0.00 | 88 | 1006.9 |
| 20260904061047 | 76 | 231 | 0.0 | 1.0 | 0.00 | 0.00 | 0.00 | 88 | 1006.8 |
| 20260904060543 | 76 | 231 | 0.0 | 1.0 | 0.00 | 0.00 | 0.00 | 88 | 1006.7 |
| 20260904060048 | 76 | 231 | 0.0 | 1.0 | 0.00 | 0.00 | 0.00 | 88 | 1007.0 |
| 20260904055541 | 76 | 253 | 0.0 | 1.0 | 0.00 | 0.00 | 0.00 | 88 | 1006.9 |
| 20260904055041 | 76 | 253 | 0.0 | 1.0 | 0.00 | 0.00 | 0.00 | 87 | 1006.9 |
| 20260904054546 | 76 | 253 | 0.0 | 1.0 | 0.00 | 0.00 | 0.00 | 87 | 1007.0 |
| 20260904054041 | 76 | 253 | 0.0 | 1.0 | 0.00 | 0.00 | 0.00 | 87 | 1006.9 |
| 20260904053539 | 77 | 261 | 0.0 | 1.0 | 0.00 | 0.00 | 0.00 | 87 | 1006.9 |
| 20260904053052 | 77 | 234 | 0.0 | 2.0 | 0.00 | 0.00 | 0.00 | 87 | 1006.9 |
| 20260904052538 | 77 | 12 | 0.0 | 2.0 | 0.00 | 0.00 | 0.00 | 86 | 1006.9 |
| 20260904052038 | 77 | 201 | 0.0 | 3.0 | 0.00 | 0.00 | 0.00 | 86 | 1006.9 |
| 20260904051537 | 77 | 200 | 0.0 | 3.0 | 0.00 | 0.00 | 0.00 | 86 | 1006.8 |
| 20260904051036 | 77 | 241 | 0.0 | 3.0 | 0.00 | 0.00 | 0.00 | 86 | 1006.9 |
| 20260904050535 | 77 | 247 | 0.0 | 3.0 | 0.00 | 0.00 | 0.00 | 85 | 1006.8 |
| 20260904050035 | 77 | 246 | 0.0 | 3.0 | 0.00 | 0.00 | 0.00 | 85 | 1006.8 |
| 20260904045534 | 77 | 147 | 1.0 | 3.0 | 0.00 | 0.00 | 0.00 | 85 | 1006.9 |
| 20260904045035 | 77 | 242 | 0.0 | 2.0 | 0.00 | 0.00 | 0.00 | 84 | 1006.9 |
| 20260904044538 | 77 | 236 | 0.0 | 2.0 | 0.00 | 0.00 | 0.00 | 84 | 1006.9 |
| 20260904044034 | 77 | 209 | 0.0 | 2.0 | 0.00 | 0.00 | 0.00 | 84 | 1007.0 |
| 20260904043534 | 77 | 239 | 0.0 | 3.0 | 0.00 | 0.00 | 0.00 | 83 | 1007.0 |
| 20260904043044 | 77 | 204 | 0.0 | 3.0 | 0.00 | 0.00 | 0.00 | 83 | 1007.0 |
| 20260904042533 | 77 | 200 | 0.0 | 3.0 | 0.00 | 0.00 | 0.00 | 83 | 1006.9 |
| 20260904042035 | 78 | 169 | 0.0 | 3.0 | 0.00 | 0.00 | 0.00 | 83 | 1007.0 |
| 20260904041533 | 78 | 281 | 0.0 | 1.0 | 0.00 | 0.00 | 0.00 | 82 | 1007.0 |
| 20260904041033 | 78 | 229 | 0.0 | 3.0 | 0.00 | 0.00 | 0.00 | 82 | 1007.0 |
| 20260904040533 | 78 | 138 | 0.0 | 3.0 | 0.00 | 0.00 | 0.00 | 82 | 1007.1 |
| 20260904040033 | 78 | 211 | 0.0 | 2.0 | 0.00 | 0.00 | 0.00 | 82 | 1007.1 |
| 20260904035532 | 77 | 277 | 0.0 | 4.0 | 0.00 | 0.00 | 0.00 | 81 | 1007.2 |
| 20260904035032 | 77 | 294 | 0.0 | 4.0 | 0.00 | 0.00 | 0.00 | 81 | 1007.2 |
| 20260904034532 | 77 | 298 | 0.0 | 2.0 | 0.00 | 0.00 | 0.00 | 81 | 1007.1 |
| 20260904034035 | 77 | 272 | 0.0 | 1.0 | 0.00 | 0.00 | 0.00 | 80 | 1007.1 |
| 20260904033534 | 77 | 193 | 0.0 | 2.0 | 0.00 | 0.00 | 0.00 | 80 | 1007.2 |
| 20260904033032 | 77 | 221 | 0.0 | 2.0 | 0.00 | 0.00 | 0.00 | 79 | 1007.0 |
| 20260904032532 | 77 | 322 | 0.0 | 0.0 | 0.00 | 0.00 | 0.00 | 78 | 1007.0 |
| 20260904032030 | 77 | 322 | 0.0 | 1.0 | 0.00 | 0.00 | 0.00 | 77 | 1007.0 |
| 20260904031530 | 77 | 322 | 0.0 | 1.0 | 0.00 | 0.00 | 0.00 | 77 | 1007.0 |
| 20260904031030 | 77 | 340 | 0.0 | 1.0 | 0.00 | 0.00 | 0.00 | 76 | 1006.9 |
| 20260904030531 | 77 | 340 | 0.0 | 1.0 | 0.00 | 0.00 | 0.00 | 76 | 1006.9 |
| 20260904030045 | 78 | 340 | 0.0 | 1.0 | 0.00 | 0.00 | 0.00 | 75 | 1007.0 |
| 20260904025530 | 78 | 340 | 0.0 | 2.0 | 0.00 | 0.00 | 0.00 | 75 | 1006.8 |
| 20260904025030 | 78 | 293 | 0.0 | 2.0 | 0.00 | 0.00 | 0.00 | 75 | 1006.7 |
| 20260904024530 | 78 | 342 | 0.0 | 1.0 | 0.00 | 0.00 | 0.00 | 75 | 1006.6 |
| 20260904024029 | 78 | 342 | 0.0 | 1.0 | 0.00 | 0.00 | 0.00 | 75 | 1006.5 |
| 20260904023531 | 78 | 342 | 0.0 | 1.0 | 0.00 | 0.00 | 0.00 | 75 | 1006.4 |
| 20260904023029 | 79 | 185 | 0.0 | 0.0 | 0.00 | 0.00 | 0.00 | 75 | 1006.4 |
| 20260904022529 | 79 | 184 | 0.0 | 0.0 | 0.00 | 0.00 | 0.00 | 75 | 1006.3 |
| 20260904022031 | 79 | 184 | 0.0 | 0.0 | 0.00 | 0.00 | 0.00 | 75 | 1006.3 |
| 20260904021531 | 79 | 184 | 0.0 | 0.0 | 0.00 | 0.00 | 0.00 | 75 | 1006.2 |
| 20260904021027 | 79 | 184 | 0.0 | 1.0 | 0.00 | 0.00 | 0.00 | 75 | 1006.1 |
| 20260904020528 | 79 | 171 | 0.0 | 1.0 | 0.00 | 0.00 | 0.00 | 75 | 1005.9 |
| 20260904020028 | 80 | 171 | 0.0 | 1.0 | 0.00 | 0.00 | 0.00 | 76 | 1006.0 |
| 20260904015532 | 80 | 171 | 0.0 | 1.0 | 0.00 | 0.00 | 0.00 | 76 | 1005.9 |
| 20260904015027 | 80 | 342 | 0.0 | 1.0 | 0.00 | 0.00 | 0.00 | 76 | 1005.8 |
| 20260904014527 | 80 | 359 | 0.0 | 1.0 | 0.00 | 0.00 | 0.00 | 76 | 1005.7 |
| 20260904014031 | 80 | 271 | 0.0 | 1.0 | 0.00 | 0.00 | 0.00 | 76 | 1005.6 |
| 20260904013526 | 80 | 261 | 0.0 | 2.0 | 0.00 | 0.00 | 0.00 | 75 | 1005.6 |
| 20260904013026 | 81 | 357 | 0.0 | 2.0 | 0.00 | 0.00 | 0.00 | 75 | 1005.5 |
| 20260904012526 | 81 | 75 | 0.0 | 1.0 | 0.00 | 0.00 | 0.00 | 74 | 1005.5 |
| 20260904012026 | 81 | 306 | 0.0 | 2.0 | 0.00 | 0.00 | 0.00 | 73 | 1005.5 |
| 20260904011527 | 81 | 243 | 0.0 | 2.0 | 0.00 | 0.00 | 0.00 | 73 | 1005.4 |
| 20260904011025 | 82 | 6 | 0.0 | 2.0 | 0.00 | 0.00 | 0.00 | 72 | 1005.2 |
| 20260904010526 | 82 | 292 | 0.0 | 3.0 | 0.00 | 0.00 | 0.00 | 72 | 1005.4 |
| 20260904010025 | 83 | 354 | 0.0 | 4.0 | 0.00 | 0.00 | 0.00 | 72 | 1005.3 |
| 20260904005525 | 83 | 185 | 0.0 | 5.0 | 0.00 | 0.00 | 0.00 | 72 | 1005.5 |
| 20260904005025 | 84 | 347 | 0.0 | 5.0 | 0.00 | 0.00 | 0.00 | 70 | 1005.4 |
| 20260904004528 | 85 | 268 | 0.0 | 4.0 | 0.00 | 0.00 | 0.00 | 69 | 1005.4 |
| 20260904004028 | 85 | 229 | 0.0 | 4.0 | 0.00 | 0.00 | 0.00 | 67 | 1005.4 |
| 20260904003525 | 86 | 222 | 0.0 | 4.0 | 0.00 | 0.00 | 0.00 | 65 | 1005.3 |
| 20260904003025 | 87 | 280 | 0.0 | 4.0 | 0.00 | 0.00 | 0.00 | 62 | 1005.3 |
| 20260904002525 | 87 | 187 | 1.0 | 4.0 | 0.00 | 0.00 | 0.00 | 60 | 1005.2 |
| 20260904002025 | 88 | 167 | 0.0 | 3.0 | 0.00 | 0.00 | 0.00 | 59 | 1005.2 |
| 20260904001524 | 88 | 347 | 0.0 | 4.0 | 0.00 | 0.00 | 0.00 | 58 | 1005.2 |
| 20260904001024 | 89 | 155 | 0.0 | 4.0 | 0.00 | 0.00 | 0.00 | 57 | 1005.1 |
| 20260904000525 | 89 | 148 | 0.0 | 2.0 | 0.00 | 0.00 | 0.00 | 56 | 1005.1 |
| 20260904000024 | 90 | 202 | 0.0 | 3.0 | 0.00 | 0.00 | 0.00 | 55 | 1005.0 |
| 20260903235523 | 90 | 200 | 1.0 | 4.0 | 0.00 | 0.00 | 0.00 | 55 | 1005.0 |
| 20260903235023 | 90 | 167 | 0.0 | 6.0 | 0.00 | 0.00 | 0.00 | 55 | 1004.9 |
| 20260903234523 | 90 | 201 | 2.0 | 7.0 | 0.00 | 0.00 | 0.00 | 54 | 1004.9 |
| 20260903234023 | 91 | 288 | 2.0 | 7.0 | 0.00 | 0.00 | 0.00 | 54 | 1005.1 |
| 20260903233523 | 91 | 224 | 0.0 | 8.0 | 0.00 | 0.00 | 0.00 | 54 | 1004.9 |
| 20260903233033 | 91 | 265 | 3.0 | 8.0 | 0.00 | 0.00 | 0.00 | 54 | 1004.9 |
| 20260903232525 | 92 | 201 | 1.0 | 5.0 | 0.00 | 0.00 | 0.00 | 54 | 1004.8 |
| 20260903232022 | 92 | 236 | 1.0 | 5.0 | 0.00 | 0.00 | 0.00 | 54 | 1004.8 |
| 20260903231538 | 92 | 282 | 1.0 | 5.0 | 0.00 | 0.00 | 0.00 | 54 | 1004.8 |
| 20260903231022 | 92 | 152 | 0.0 | 5.0 | 0.00 | 0.00 | 0.00 | 55 | 1004.9 |
| 20260903230526 | 92 | 113 | 1.0 | 6.0 | 0.00 | 0.00 | 0.00 | 55 | 1004.9 |
| 20260903230021 | 92 | 266 | 1.0 | 6.0 | 0.00 | 0.00 | 0.00 | 56 | 1004.9 |
| 20260903225521 | 92 | 269 | 1.0 | 5.0 | 0.00 | 0.00 | 0.00 | 55 | 1004.8 |
| 20260903225020 | 92 | 245 | 1.0 | 5.0 | 0.00 | 0.00 | 0.00 | 57 | 1004.9 |
| 20260903224519 | 91 | 61 | 0.0 | 3.0 | 0.00 | 0.00 | 0.00 | 58 | 1004.8 |
| 20260903224017 | 90 | 300 | 0.0 | 2.0 | 0.00 | 0.00 | 0.00 | 60 | 1004.7 |
| 20260903223521 | 90 | 246 | 0.0 | 4.0 | 0.00 | 0.00 | 0.00 | 60 | 1004.8 |
| 20260903223016 | 89 | 197 | 0.0 | 4.0 | 0.00 | 0.00 | 0.00 | 61 | 1004.7 |
| 20260903222516 | 89 | 194 | 1.0 | 4.0 | 0.00 | 0.00 | 0.00 | 62 | 1004.7 |
| 20260903222017 | 89 | 236 | 0.0 | 9.0 | 0.00 | 0.00 | 0.00 | 61 | 1004.7 |
| 20260903221517 | 89 | 224 | 0.0 | 5.0 | 0.00 | 0.00 | 0.00 | 62 | 1004.7 |
| 20260903221019 | 89 | 248 | 0.0 | 6.0 | 0.00 | 0.00 | 0.00 | 61 | 1004.7 |
| 20260903220515 | 89 | 236 | 2.0 | 6.0 | 0.00 | 0.00 | 0.00 | 61 | 1004.7 |
| 20260903220016 | 89 | 104 | 1.0 | 6.0 | 0.00 | 0.00 | 0.00 | 62 | 1004.6 |
| 20260903215515 | 89 | 240 | 1.0 | 5.0 | 0.00 | 0.00 | 0.00 | 62 | 1004.7 |
| 20260903215014 | 90 | 192 | 1.0 | 6.0 | 0.00 | 0.00 | 0.00 | 61 | 1004.8 |
| 20260903214515 | 90 | 171 | 2.0 | 6.0 | 0.00 | 0.00 | 0.00 | 61 | 1004.7 |
| 20260903214015 | 90 | 207 | 2.0 | 6.0 | 0.00 | 0.00 | 0.00 | 61 | 1004.8 |
| 20260903213514 | 90 | 230 | 1.0 | 6.0 | 0.00 | 0.00 | 0.00 | 62 | 1004.8 |
| 20260903213012 | 90 | 198 | 2.0 | 7.0 | 0.00 | 0.00 | 0.00 | 62 | 1004.9 |
| 20260903212511 | 90 | 236 | 1.0 | 7.0 | 0.00 | 0.00 | 0.00 | 63 | 1005.1 |
| 20260903212011 | 89 | 330 | 1.0 | 6.0 | 0.00 | 0.00 | 0.00 | 63 | 1005.1 |
| 20260903211510 | 89 | 240 | 1.0 | 6.0 | 0.00 | 0.00 | 0.00 | 63 | 1005.1 |
| 20260903211010 | 89 | 255 | 2.0 | 6.0 | 0.00 | 0.00 | 0.00 | 63 | 1005.2 |
| 20260903210510 | 89 | 221 | 1.0 | 4.0 | 0.00 | 0.00 | 0.00 | 63 | 1005.1 |
| 20260903210011 | 89 | 241 | 0.0 | 4.0 | 0.00 | 0.00 | 0.00 | 63 | 1005.2 |
| 20260903205509 | 89 | 211 | 1.0 | 6.0 | 0.00 | 0.00 | 0.00 | 63 | 1005.4 |
| 20260903205009 | 89 | 211 | 0.0 | 8.0 | 0.00 | 0.00 | 0.00 | 63 | 1005.2 |
| 20260903204509 | 89 | 205 | 1.0 | 8.0 | 0.00 | 0.00 | 0.00 | 63 | 1005.3 |
| 20260903204009 | 89 | 203 | 3.0 | 12.0 | 0.00 | 0.00 | 0.00 | 63 | 1005.4 |
| 20260903203507 | 90 | 257 | 4.0 | 9.0 | 0.00 | 0.00 | 0.00 | 62 | 1005.4 |
| 20260903203007 | 90 | 223 | 4.0 | 9.0 | 0.00 | 0.00 | 0.00 | 62 | 1005.2 |
| 20260903202506 | 89 | 246 | 2.0 | 9.0 | 0.00 | 0.00 | 0.00 | 64 | 1005.4 |
| 20260903202008 | 89 | 220 | 3.0 | 11.0 | 0.00 | 0.00 | 0.00 | 64 | 1005.6 |
| 20260903201505 | 89 | 201 | 2.0 | 11.0 | 0.00 | 0.00 | 0.00 | 64 | 1005.6 |
| 20260903201004 | 88 | 189 | 2.0 | 13.0 | 0.00 | 0.00 | 0.00 | 64 | 1005.5 |
| 20260903200504 | 88 | 187 | 5.0 | 11.0 | 0.00 | 0.00 | 0.00 | 64 | 1005.5 |
| 20260903200004 | 89 | 217 | 4.0 | 11.0 | 0.00 | 0.00 | 0.00 | 64 | 1005.4 |
| 20260903195503 | 89 | 246 | 3.0 | 10.0 | 0.00 | 0.00 | 0.00 | 65 | 1005.5 |
| 20260903195003 | 89 | 146 | 4.0 | 14.0 | 0.00 | 0.00 | 0.00 | 64 | 1005.6 |
| 20260903194502 | 88 | 244 | 4.0 | 14.0 | 0.00 | 0.00 | 0.00 | 65 | 1005.6 |
| 20260903194001 | 88 | 201 | 2.0 | 12.0 | 0.00 | 0.00 | 0.00 | 65 | 1005.6 |
| 20260903193600 | 88 | 257 | 3.0 | 12.0 | 0.00 | 0.00 | 0.00 | 66 | 1005.7 |
| 20260903193102 | 88 | 155 | 3.0 | 13.0 | 0.00 | 0.00 | 0.00 | 66 | 1005.7 |
| 20260903192559 | 88 | 255 | 4.0 | 13.0 | 0.00 | 0.00 | 0.00 | 66 | 1005.8 |
| 20260903192058 | 87 | 261 | 2.0 | 13.0 | 0.00 | 0.00 | 0.00 | 68 | 1005.9 |
| 20260903191603 | 88 | 232 | 6.0 | 13.0 | 0.00 | 0.00 | 0.00 | 66 | 1006.0 |
| 20260903191058 | 87 | 165 | 2.0 | 13.0 | 0.00 | 0.00 | 0.00 | 68 | 1006.1 |
| 20260903190558 | 87 | 204 | 5.0 | 13.0 | 0.00 | 0.00 | 0.00 | 68 | 1006.3 |
| 20260903190057 | 87 | 224 | 6.0 | 14.0 | 0.00 | 0.00 | 0.00 | 69 | 1006.3 |
| 20260903185600 | 86 | 153 | 5.0 | 14.0 | 0.00 | 0.00 | 0.00 | 69 | 1006.5 |
| 20260903185057 | 87 | 259 | 5.0 | 13.0 | 0.00 | 0.00 | 0.00 | 69 | 1006.6 |
| 20260903184559 | 87 | 255 | 8.0 | 13.0 | 0.00 | 0.00 | 0.00 | 67 | 1006.6 |
| 20260903184057 | 88 | 257 | 3.0 | 12.0 | 0.00 | 0.00 | 0.00 | 68 | 1006.7 |
| 20260903183554 | 88 | 179 | 4.0 | 14.0 | 0.00 | 0.00 | 0.00 | 69 | 1006.8 |
| 20260903183058 | 87 | 241 | 6.0 | 15.0 | 0.00 | 0.00 | 0.00 | 70 | 1006.8 |
| 20260903182554 | 86 | 218 | 4.0 | 16.0 | 0.00 | 0.00 | 0.00 | 72 | 1006.8 |
| 20260903182050 | 85 | 219 | 4.0 | 16.0 | 0.00 | 0.00 | 0.00 | 74 | 1007.0 |
| 20260903181548 | 85 | 213 | 5.0 | 12.0 | 0.00 | 0.00 | 0.00 | 73 | 1007.1 |
| 20260903181048 | 85 | 208 | 4.0 | 12.0 | 0.00 | 0.00 | 0.00 | 73 | 1007.1 |
| 20260903180551 | 85 | 229 | 3.0 | 12.0 | 0.00 | 0.00 | 0.00 | 73 | 1007.1 |
| 20260903180048 | 84 | 221 | 3.0 | 13.0 | 0.00 | 0.00 | 0.00 | 73 | 1007.0 |
| 20260903175549 | 84 | 169 | 4.0 | 13.0 | 0.00 | 0.00 | 0.00 | 73 | 1007.2 |
| 20260903175050 | 85 | 212 | 2.0 | 9.0 | 0.00 | 0.00 | 0.00 | 73 | 1007.2 |
| 20260903174547 | 84 | 205 | 3.0 | 9.0 | 0.00 | 0.00 | 0.00 | 74 | 1007.4 |
| 20260903174048 | 84 | 218 | 2.0 | 10.0 | 0.00 | 0.00 | 0.00 | 74 | 1007.3 |
| 20260903173547 | 84 | 236 | 3.0 | 10.0 | 0.00 | 0.00 | 0.00 | 73 | 1007.5 |
| 20260903173047 | 84 | 248 | 2.0 | 14.0 | 0.00 | 0.00 | 0.00 | 74 | 1007.5 |
| 20260903172549 | 84 | 176 | 5.0 | 14.0 | 0.00 | 0.00 | 0.00 | 74 | 1007.6 |
| 20260903172045 | 84 | 225 | 3.0 | 11.0 | 0.00 | 0.00 | 0.00 | 75 | 1007.6 |
| 20260903171602 | 84 | 175 | 3.0 | 11.0 | 0.00 | 0.00 | 0.00 | 75 | 1007.7 |
| 20260903171045 | 84 | 208 | 3.0 | 9.0 | 0.00 | 0.00 | 0.00 | 76 | 1007.8 |
| 20260903170546 | 84 | 259 | 3.0 | 9.0 | 0.00 | 0.00 | 0.00 | 75 | 1007.6 |
| 20260903170052 | 84 | 240 | 1.0 | 9.0 | 0.00 | 0.00 | 0.00 | 75 | 1007.7 |
| 20260903165544 | 84 | 236 | 3.0 | 7.0 | 0.00 | 0.00 | 0.00 | 76 | 1007.7 |
| 20260903165044 | 84 | 211 | 1.0 | 5.0 | 0.00 | 0.00 | 0.00 | 77 | 1007.6 |
| 20260903164542 | 84 | 188 | 2.0 | 8.0 | 0.00 | 0.00 | 0.00 | 78 | 1007.7 |
| 20260903164041 | 84 | 158 | 1.0 | 7.0 | 0.00 | 0.00 | 0.00 | 78 | 1007.6 |
| 20260903163540 | 83 | 254 | 2.0 | 10.0 | 0.00 | 0.00 | 0.00 | 78 | 1007.6 |
| 20260903163043 | 83 | 281 | 3.0 | 12.0 | 0.00 | 0.00 | 0.00 | 77 | 1007.7 |
| 20260903162539 | 83 | 238 | 4.0 | 12.0 | 0.00 | 0.00 | 0.00 | 78 | 1007.5 |
| 20260903162038 | 83 | 231 | 4.0 | 7.0 | 0.00 | 0.00 | 0.00 | 78 | 1007.4 |
| 20260903161537 | 83 | 202 | 2.0 | 8.0 | 0.00 | 0.00 | 0.00 | 79 | 1007.4 |
| 20260903161036 | 83 | 233 | 4.0 | 8.0 | 0.00 | 0.00 | 0.00 | 79 | 1007.3 |
| 20260903160536 | 82 | 196 | 2.0 | 8.0 | 0.00 | 0.00 | 0.00 | 79 | 1007.4 |
| 20260903160037 | 82 | 248 | 1.0 | 7.0 | 0.00 | 0.00 | 0.00 | 80 | 1007.4 |
| 20260903155536 | 82 | 107 | 1.0 | 7.0 | 0.00 | 0.00 | 0.00 | 80 | 1007.5 |
| 20260903155038 | 82 | 243 | 2.0 | 11.0 | 0.00 | 0.00 | 0.00 | 80 | 1007.4 |
| 20260903154536 | 82 | 219 | 2.0 | 11.0 | 0.00 | 0.00 | 0.00 | 80 | 1007.4 |
| 20260903154037 | 82 | 182 | 4.0 | 10.0 | 0.00 | 0.00 | 0.00 | 80 | 1007.4 |
| 20260903153533 | 82 | 243 | 2.0 | 7.0 | 0.00 | 0.00 | 0.00 | 81 | 1007.4 |
| 20260903153033 | 82 | 206 | 2.0 | 11.0 | 0.00 | 0.00 | 0.00 | 81 | 1007.4 |
| 20260903152532 | 82 | 207 | 2.0 | 11.0 | 0.00 | 0.00 | 0.00 | 82 | 1007.2 |
| 20260903152032 | 81 | 285 | 1.0 | 11.0 | 0.00 | 0.00 | 0.00 | 82 | 1007.2 |
| 20260903151532 | 81 | 240 | 1.0 | 6.0 | 0.00 | 0.00 | 0.00 | 83 | 1007.1 |
| 20260903151032 | 81 | 207 | 1.0 | 7.0 | 0.00 | 0.00 | 0.00 | 83 | 1007.2 |
| 20260903150530 | 81 | 207 | 1.0 | 7.0 | 0.00 | 0.00 | 0.00 | 84 | 1007.2 |
| 20260903150042 | 81 | 236 | 2.0 | 7.0 | 0.00 | 0.00 | 0.00 | 83 | 1007.4 |
| 20260903145529 | 81 | 223 | 2.0 | 7.0 | 0.00 | 0.00 | 0.00 | 83 | 1007.3 |
| 20260903145031 | 81 | 172 | 0.0 | 3.0 | 0.00 | 0.00 | 0.00 | 84 | 1007.4 |
| 20260903144529 | 81 | 243 | 0.0 | 2.0 | 0.00 | 0.00 | 0.00 | 84 | 1007.3 |
| 20260903144028 | 81 | 191 | 0.0 | 4.0 | 0.00 | 0.00 | 0.00 | 85 | 1007.3 |
| 20260903143528 | 80 | 189 | 1.0 | 4.0 | 0.00 | 0.00 | 0.00 | 85 | 1007.2 |
| 20260903143034 | 80 | 204 | 0.0 | 2.0 | 0.00 | 0.00 | 0.00 | 85 | 1007.3 |
| 20260903142524 | 80 | 248 | 0.0 | 6.0 | 0.00 | 0.00 | 0.00 | 86 | 1007.2 |
| 20260903142023 | 79 | 231 | 1.0 | 8.0 | 0.00 | 0.00 | 0.00 | 86 | 1007.2 |
| 20260903141521 | 79 | 279 | 1.0 | 8.0 | 0.00 | 0.00 | 0.00 | 86 | 1007.2 |
| 20260903141020 | 79 | 248 | 1.0 | 4.0 | 0.00 | 0.00 | 0.00 | 87 | 1007.2 |
| 20260903140520 | 79 | 200 | 0.0 | 4.0 | 0.00 | 0.00 | 0.00 | 87 | 1007.2 |
| 20260903140022 | 78 | 236 | 0.0 | 2.0 | 0.00 | 0.00 | 0.00 | 88 | 1007.3 |
| 20260903135521 | 78 | 234 | 0.0 | 4.0 | 0.00 | 0.00 | 0.00 | 88 | 1007.3 |
| 20260903135019 | 78 | 234 | 0.0 | 4.0 | 0.00 | 0.00 | 0.00 | 88 | 1007.3 |
| 20260903134521 | 77 | 278 | 0.0 | 2.0 | 0.00 | 0.00 | 0.00 | 89 | 1007.2 |
| 20260903134019 | 77 | 244 | 0.0 | 2.0 | 0.00 | 0.00 | 0.00 | 89 | 1007.2 |
| 20260903133517 | 77 | 357 | 0.0 | 1.0 | 0.00 | 0.00 | 0.00 | 90 | 1007.2 |
| 20260903133018 | 76 | 256 | 0.0 | 1.0 | 0.00 | 0.00 | 0.00 | 90 | 1007.2 |
| 20260903132514 | 76 | 256 | 0.0 | 2.0 | 0.00 | 0.00 | 0.00 | 90 | 1007.0 |
| 20260903132013 | 76 | 25 | 0.0 | 2.0 | 0.00 | 0.00 | 0.00 | 91 | 1007.0 |
| 20260903131513 | 75 | 302 | 0.0 | 2.0 | 0.00 | 0.00 | 0.00 | 91 | 1006.9 |
| 20260903131013 | 75 | 223 | 0.0 | 1.0 | 0.00 | 0.00 | 0.00 | 91 | 1007.0 |
| 20260903130512 | 75 | 254 | 0.0 | 2.0 | 0.00 | 0.00 | 0.00 | 92 | 1006.8 |
| 20260903130015 | 74 | 254 | 0.0 | 2.0 | 0.00 | 0.00 | 0.00 | 92 | 1007.0 |
| 20260903125512 | 74 | 14 | 0.0 | 1.0 | 0.00 | 0.00 | 0.00 | 92 | 1007.0 |
| 20260903125013 | 74 | 18 | 0.0 | 1.0 | 0.00 | 0.00 | 0.00 | 92 | 1006.9 |
| 20260903124513 | 73 | 138 | 0.0 | 1.0 | 0.00 | 0.00 | 0.00 | 92 | 1007.1 |
| 20260903124013 | 73 | 138 | 0.0 | 1.0 | 0.00 | 0.00 | 0.00 | 92 | 1007.0 |
| 20260903123511 | 73 | 138 | 0.0 | 0.0 | 0.00 | 0.00 | 0.00 | 92 | 1006.9 |
| 20260903123011 | 73 | 138 | 0.0 | 0.0 | 0.00 | 0.00 | 0.00 | 92 | 1006.8 |
| 20260903122515 | 73 | 138 | 0.0 | 0.0 | 0.00 | 0.00 | 0.00 | 92 | 1006.8 |
| 20260903122011 | 73 | 138 | 0.0 | 0.0 | 0.00 | 0.00 | 0.00 | 92 | 1006.8 |
| 20260903121511 | 73 | 138 | 0.0 | 0.0 | 0.00 | 0.00 | 0.00 | 92 | 1006.7 |
| 20260903121014 | 72 | 138 | 0.0 | 0.0 | 0.00 | 0.00 | 0.00 | 92 | 1006.7 |
| 20260903120510 | 72 | 138 | 0.0 | 0.0 | 0.00 | 0.00 | 0.00 | 92 | 1006.7 |
| 20260903120010 | 72 | 138 | 0.0 | 0.0 | 0.00 | 0.00 | 0.00 | 92 | 1006.6 |
| 20260903115512 | 72 | 138 | 0.0 | 0.0 | 0.00 | 0.00 | 0.00 | 92 | 1006.6 |
| 20260903115010 | 72 | 138 | 0.0 | 0.0 | 0.00 | 0.00 | 0.00 | 92 | 1006.8 |
| 20260903114510 | 72 | 138 | 0.0 | 0.0 | 0.00 | 0.00 | 0.00 | 92 | 1006.6 |
| 20260903114009 | 72 | 138 | 0.0 | 0.0 | 0.00 | 0.00 | 0.00 | 91 | 1006.7 |
| 20260903113509 | 72 | 138 | 0.0 | 0.0 | 0.00 | 0.00 | 0.00 | 91 | 1006.6 |
| 20260903113009 | 72 | 138 | 0.0 | 0.0 | 0.00 | 0.00 | 0.00 | 91 | 1006.5 |
| 20260903112509 | 73 | 138 | 0.0 | 0.0 | 0.00 | 0.00 | 0.00 | 91 | 1006.6 |
| 20260903112008 | 73 | 138 | 0.0 | 0.0 | 0.00 | 0.00 | 0.00 | 91 | 1006.6 |
| 20260903111509 | 73 | 138 | 0.0 | 0.0 | 0.00 | 0.00 | 0.00 | 91 | 1006.6 |
| 20260903111008 | 73 | 138 | 0.0 | 0.0 | 0.00 | 0.00 | 0.00 | 91 | 1006.6 |
| 20260903110508 | 73 | 138 | 0.0 | 0.0 | 0.00 | 0.00 | 0.00 | 91 | 1006.6 |
| 20260903110008 | 73 | 138 | 0.0 | 1.0 | 0.00 | 0.00 | 0.00 | 91 | 1006.6 |
| 20260903105508 | 73 | 138 | 0.0 | 1.0 | 0.00 | 0.00 | 0.00 | 91 | 1006.4 |
| 20260903105007 | 73 | 138 | 0.0 | 0.0 | 0.00 | 0.00 | 0.00 | 90 | 1006.3 |
| 20260903104510 | 73 | 138 | 0.0 | 0.0 | 0.00 | 0.00 | 0.00 | 90 | 1006.3 |
| 20260903104007 | 73 | 138 | 0.0 | 0.0 | 0.00 | 0.00 | 0.00 | 90 | 1006.2 |
| 20260903103507 | 73 | 138 | 0.0 | 0.0 | 0.00 | 0.00 | 0.00 | 90 | 1006.3 |
| 20260903103008 | 73 | 138 | 0.0 | 2.0 | 0.00 | 0.00 | 0.00 | 90 | 1006.3 |
| 20260903102507 | 73 | 138 | 0.0 | 2.0 | 0.00 | 0.00 | 0.00 | 91 | 1006.2 |
| 20260903102007 | 72 | 240 | 0.0 | 0.0 | 0.00 | 0.00 | 0.00 | 90 | 1006.2 |
| 20260903101512 | 72 | 240 | 0.0 | 0.0 | 0.00 | 0.00 | 0.00 | 90 | 1006.2 |
| 20260903101006 | 72 | 240 | 0.0 | 0.0 | 0.00 | 0.00 | 0.00 | 90 | 1006.2 |
| 20260903100506 | 72 | 240 | 0.0 | 0.0 | 0.00 | 0.00 | 0.00 | 90 | 1006.4 |
| 20260903100005 | 72 | 240 | 0.0 | 0.0 | 0.00 | 0.00 | 0.00 | 90 | 1006.4 |
| 20260903095505 | 72 | 240 | 0.0 | 0.0 | 0.00 | 0.00 | 0.00 | 90 | 1006.4 |
| 20260903095007 | 72 | 240 | 0.0 | 0.0 | 0.00 | 0.00 | 0.00 | 90 | 1006.5 |
| 20260903094505 | 72 | 240 | 0.0 | 0.0 | 0.00 | 0.00 | 0.00 | 90 | 1006.4 |
| 20260903094005 | 72 | 240 | 0.0 | 0.0 | 0.00 | 0.00 | 0.00 | 90 | 1006.5 |
| 20260903093506 | 72 | 240 | 0.0 | 0.0 | 0.00 | 0.00 | 0.00 | 89 | 1006.5 |
| 20260903093005 | 72 | 240 | 0.0 | 0.0 | 0.00 | 0.00 | 0.00 | 89 | 1006.4 |